| time (UTC) | temp F | wind direction | speed MPH | gust MPH | rain 1hr in | rain 24hr in | rain mn in | humidity % | barometer mb |
| 20260906201508 | 89 | 165 | 20.0 | 30.0 | 0.00 | 0.02 | 0.02 | 50 | 1008.3 |
| 20260906200007 | 89 | 153 | 21.0 | 28.0 | 0.00 | 0.02 | 0.02 | 51 | 1008.5 |
| 20260906194513 | 89 | 157 | 26.0 | 33.0 | 0.00 | 0.02 | 0.02 | 50 | 1008.7 |
| 20260906193005 | 89 | 178 | 21.0 | 28.0 | 0.00 | 0.02 | 0.02 | 49 | 1008.8 |
| 20260906191507 | 89 | 166 | 23.0 | 35.0 | 0.00 | 0.02 | 0.02 | 48 | 1008.8 |
| 20260906190004 | 89 | 184 | 22.0 | 31.0 | 0.00 | 0.02 | 0.02 | 49 | 1008.9 |
| 20260906184608 | 87 | 176 | 19.0 | 33.0 | 0.00 | 0.02 | 0.02 | 54 | 1009.1 |
| 20260906183102 | 87 | 167 | 22.0 | 31.0 | 0.00 | 0.02 | 0.02 | 55 | 1009.0 |
| 20260906181559 | 85 | 183 | 20.0 | 28.0 | 0.00 | 0.02 | 0.02 | 56 | 1009.4 |
| 20260906180053 | 84 | 153 | 18.0 | 30.0 | 0.00 | 0.02 | 0.02 | 60 | 1009.7 |
| 20260906174550 | 83 | 148 | 19.0 | 27.0 | 0.00 | 0.02 | 0.02 | 63 | 1010.0 |
| 20260906173051 | 82 | 182 | 16.0 | 22.0 | 0.00 | 0.02 | 0.02 | 65 | 1010.2 |
| 20260906171540 | 80 | 150 | 16.0 | 22.0 | 0.00 | 0.02 | 0.02 | 67 | 1010.4 |
| 20260906170041 | 79 | 165 | 19.0 | 25.0 | 0.00 | 0.02 | 0.02 | 69 | 1010.7 |
| 20260906164533 | 78 | 154 | 14.0 | 22.0 | 0.00 | 0.02 | 0.02 | 73 | 1011.1 |
| 20260906163031 | 75 | 124 | 10.0 | 21.0 | 0.00 | 0.02 | 0.02 | 78 | 1011.2 |
| 20260906161532 | 76 | 111 | 11.0 | 19.0 | 0.00 | 0.02 | 0.02 | 78 | 1011.1 |
| 20260906160036 | 74 | 119 | 9.0 | 24.0 | 0.00 | 0.02 | 0.02 | 83 | 1011.1 |
| 20260906154538 | 73 | 128 | 10.0 | 19.0 | 0.00 | 0.02 | 0.02 | 84 | 1011.2 |
| 20260906153026 | 73 | 133 | 12.0 | 20.0 | 0.00 | 0.02 | 0.02 | 85 | 1011.2 |
| 20260906151523 | 72 | 100 | 8.0 | 15.0 | 0.00 | 0.02 | 0.02 | 88 | 1011.1 |
| 20260906150022 | 71 | 137 | 9.0 | 18.0 | 0.00 | 0.02 | 0.02 | 91 | 1011.1 |
| 20260906144518 | 70 | 152 | 9.0 | 18.0 | 0.00 | 0.02 | 0.02 | 93 | 1011.2 |
| 20260906143016 | 69 | 134 | 13.0 | 18.0 | 0.00 | 0.02 | 0.02 | 93 | 1010.9 |
| 20260906141513 | 69 | 132 | 15.0 | 24.0 | 0.00 | 0.02 | 0.02 | 93 | 1010.9 |
| 20260906140010 | 69 | 106 | 12.0 | 20.0 | 0.00 | 0.02 | 0.02 | 93 | 1011.1 |
| 20260906134507 | 69 | 128 | 8.0 | 18.0 | 0.00 | 0.02 | 0.02 | 93 | 1011.1 |
| 20260906133004 | 68 | 120 | 11.0 | 17.0 | 0.01 | 0.02 | 0.02 | 93 | 1010.8 |
| 20260906131605 | 68 | 157 | 6.0 | 10.0 | 0.01 | 0.02 | 0.02 | 93 | 1010.9 |
| 20260906130058 | 68 | 132 | 2.0 | 7.0 | 0.01 | 0.02 | 0.02 | 93 | 1010.4 |
| 20260906124559 | 68 | 96 | 5.0 | 10.0 | 0.01 | 0.02 | 0.02 | 93 | 1010.0 |
| 20260906123101 | 68 | 80 | 7.0 | 16.0 | 0.00 | 0.01 | 0.01 | 93 | 1009.9 |
| 20260906121555 | 68 | 103 | 2.0 | 7.0 | 0.00 | 0.01 | 0.01 | 93 | 1010.7 |
| 20260906120053 | 67 | 109 | 0.0 | 7.0 | 0.00 | 0.01 | 0.01 | 93 | 1010.8 |
| 20260906114553 | 67 | 101 | 3.0 | 8.0 | 0.00 | 0.01 | 0.01 | 93 | 1010.5 |
| 20260906113051 | 68 | 102 | 6.0 | 10.0 | 0.00 | 0.01 | 0.01 | 92 | 1010.6 |
| 20260906111550 | 68 | 85 | 4.0 | 8.0 | 0.00 | 0.01 | 0.01 | 92 | 1010.5 |
| 20260906110051 | 68 | 64 | 4.0 | 9.0 | 0.01 | 0.01 | 0.01 | 92 | 1010.5 |
| 20260906104545 | 68 | 42 | 5.0 | 8.0 | 0.01 | 0.01 | 0.01 | 91 | 1010.3 |
| 20260906103044 | 68 | 25 | 4.0 | 9.0 | 0.01 | 0.01 | 0.01 | 89 | 1010.0 |
| 20260906101542 | 69 | 17 | 6.0 | 13.0 | 0.01 | 0.01 | 0.01 | 87 | 1010.2 |
| 20260906100037 | 70 | 19 | 6.0 | 16.0 | 0.00 | 0.00 | 0.00 | 84 | 1009.6 |
| 20260906094535 | 73 | 45 | 8.0 | 20.0 | 0.00 | 0.00 | 0.00 | 77 | 1009.6 |
| 20260906093028 | 75 | 326 | 11.0 | 14.0 | 0.00 | 0.00 | 0.00 | 71 | 1009.1 |
| 20260906091530 | 76 | 247 | 4.0 | 10.0 | 0.00 | 0.00 | 0.00 | 68 | 1008.6 |
| 20260906090138 | 76 | 239 | 2.0 | 11.0 | 0.00 | 0.00 | 0.00 | 69 | 1008.4 |
| 20260906084527 | 76 | 204 | 11.0 | 13.0 | 0.00 | 0.00 | 0.00 | 66 | 1008.2 |
| 20260906083025 | 76 | 199 | 9.0 | 13.0 | 0.00 | 0.00 | 0.00 | 67 | 1008.2 |
| 20260906081533 | 76 | 194 | 10.0 | 14.0 | 0.00 | 0.00 | 0.00 | 66 | 1008.2 |
| 20260906080023 | 77 | 199 | 12.0 | 20.0 | 0.00 | 0.00 | 0.00 | 65 | 1008.2 |
| 20260906074521 | 77 | 360 | 13.0 | 17.0 | 0.00 | 0.00 | 0.00 | 64 | 1008.4 |
| 20260906073020 | 78 | 182 | 8.0 | 14.0 | 0.00 | 0.00 | 0.00 | 64 | 1008.5 |
| 20260906071520 | 78 | 182 | 12.0 | 18.0 | 0.00 | 0.00 | 0.00 | 63 | 1008.5 |
| 20260906070018 | 78 | 180 | 11.0 | 16.0 | 0.00 | 0.00 | 0.00 | 64 | 1008.5 |
| 20260906064516 | 77 | 174 | 12.0 | 16.0 | 0.00 | 0.00 | 0.00 | 65 | 1008.8 |
| 20260906063014 | 77 | 169 | 10.0 | 15.0 | 0.00 | 0.00 | 0.00 | 66 | 1008.9 |
| 20260906061514 | 76 | 360 | 8.0 | 12.0 | 0.00 | 0.00 | 0.00 | 67 | 1009.1 |
| 20260906060012 | 76 | 163 | 8.0 | 12.0 | 0.00 | 0.00 | 0.00 | 67 | 1008.8 |
| 20260906054510 | 76 | 175 | 7.0 | 9.0 | 0.00 | 0.00 | 0.00 | 68 | 1008.8 |
| 20260906053009 | 76 | 180 | 6.0 | 8.0 | 0.00 | 0.00 | 0.00 | 67 | 1008.7 |
| 20260906051508 | 76 | 162 | 7.0 | 12.0 | 0.00 | 0.00 | 0.00 | 67 | 1008.4 |
| 20260906050006 | 77 | 161 | 8.0 | 11.0 | 0.00 | 0.00 | 0.00 | 65 | 1008.3 |
| 20260906044502 | 78 | 161 | 5.0 | 10.0 | 0.00 | 0.00 | 0.00 | 63 | 1008.5 |
| 20260906043002 | 78 | 162 | 6.0 | 11.0 | 0.00 | 0.00 | 0.00 | 63 | 1008.6 |
| 20260906041501 | 78 | 169 | 8.0 | 12.0 | 0.00 | 0.00 | 0.00 | 62 | 1008.3 |
| 20260906040100 | 78 | 170 | 8.0 | 13.0 | 0.00 | 0.00 | 0.00 | 62 | 1008.4 |
| 20260906034600 | 78 | 166 | 10.0 | 13.0 | 0.00 | 0.00 | 0.00 | 62 | 1008.3 |
| 20260906033100 | 79 | 162 | 9.0 | 12.0 | 0.00 | 0.00 | 0.00 | 61 | 1008.2 |
| 20260906031559 | 79 | 160 | 9.0 | 15.0 | 0.00 | 0.00 | 0.00 | 60 | 1008.3 |
| 20260906030127 | 80 | 157 | 9.0 | 12.0 | 0.00 | 0.00 | 0.00 | 60 | 1008.1 |
| 20260906024602 | 80 | 160 | 9.0 | 15.0 | 0.00 | 0.00 | 0.00 | 59 | 1008.0 |
| 20260906023112 | 81 | 161 | 11.0 | 15.0 | 0.00 | 0.00 | 0.00 | 59 | 1007.8 |
| 20260906021610 | 82 | 168 | 12.0 | 16.0 | 0.00 | 0.00 | 0.00 | 58 | 1007.9 |
| 20260906020100 | 83 | 148 | 9.0 | 14.0 | 0.00 | 0.00 | 0.00 | 56 | 1007.6 |
| 20260906014559 | 83 | 153 | 9.0 | 17.0 | 0.00 | 0.00 | 0.00 | 55 | 1007.5 |
| 20260906014532 | 83 | 155 | 9.0 | 17.0 | 0.00 | 0.00 | 0.00 | 55 | 1007.5 |
| 20260906013055 | 84 | 160 | 10.0 | 16.0 | 0.00 | 0.00 | 0.00 | 54 | 1007.6 |
| 20260906011555 | 85 | 148 | 6.0 | 17.0 | 0.00 | 0.00 | 0.00 | 52 | 1007.2 |
| 20260906010053 | 86 | 160 | 15.0 | 22.0 | 0.00 | 0.00 | 0.00 | 50 | 1006.9 |
| 20260906004555 | 88 | 142 | 16.0 | 23.0 | 0.00 | 0.00 | 0.00 | 48 | 1006.5 |
| 20260906003103 | 89 | 151 | 17.0 | 29.0 | 0.00 | 0.00 | 0.00 | 46 | 1006.6 |
| 20260906001551 | 93 | 170 | 11.0 | 18.0 | 0.00 | 0.00 | 0.00 | 37 | 1006.2 |
| 20260906000051 | 94 | 179 | 16.0 | 19.0 | 0.00 | 0.00 | 0.00 | 36 | 1006.2 |
| 20260905234556 | 95 | 190 | 12.0 | 24.0 | 0.00 | 0.00 | 0.00 | 36 | 1006.2 |
| 20260905233050 | 95 | 196 | 13.0 | 24.0 | 0.00 | 0.00 | 0.00 | 35 | 1006.1 |
| 20260905231548 | 95 | 175 | 16.0 | 20.0 | 0.00 | 0.00 | 0.00 | 36 | 1006.0 |
| 20260905230052 | 95 | 159 | 16.0 | 25.0 | 0.00 | 0.00 | 0.00 | 37 | 1005.8 |
| 20260905224547 | 95 | 182 | 15.0 | 22.0 | 0.00 | 0.00 | 0.00 | 37 | 1005.8 |
| 20260905223047 | 96 | 152 | 13.0 | 19.0 | 0.00 | 0.00 | 0.00 | 37 | 1005.8 |
| 20260905221544 | 96 | 126 | 13.0 | 21.0 | 0.00 | 0.00 | 0.00 | 36 | 1005.8 |
| 20260905220040 | 96 | 360 | 15.0 | 22.0 | 0.00 | 0.00 | 0.00 | 37 | 1006.1 |
| 20260905214534 | 96 | 132 | 13.0 | 23.0 | 0.00 | 0.00 | 0.00 | 35 | 1006.2 |
| 20260905213030 | 96 | 165 | 18.0 | 26.0 | 0.00 | 0.00 | 0.00 | 35 | 1006.4 |
| 20260905211526 | 96 | 169 | 15.0 | 23.0 | 0.00 | 0.00 | 0.00 | 33 | 1006.6 |
| 20260905210026 | 96 | 153 | 19.0 | 25.0 | 0.00 | 0.00 | 0.00 | 35 | 1006.7 |
| 20260905204520 | 96 | 171 | 16.0 | 29.0 | 0.00 | 0.00 | 0.00 | 33 | 1007.0 |
| 20260905203019 | 96 | 196 | 18.0 | 25.0 | 0.00 | 0.00 | 0.00 | 33 | 1007.2 |